Date,TemperatureHighF,TemperatureAvgF,TemperatureLowF,DewpointHighF,DewpointAvgF,DewpointLowF,HumidityHigh,HumidityAvg,HumidityLow,PressureMaxIn,PressureMinIn,WindSpeedMaxMPH,WindSpeedAvgMPH,GustSpeedMaxMPH,PrecipitationSumIn
2013-1-1,49,45,42,47,41,18,98,88,39,30.22,30.09,12,5,13,0.78
2013-1-2,44,36,33,44,35,32,99,97,95,30.24,30.07,28,7,28,0.01
2013-1-3,39,33,31,34,28,20,97,85,58,30.41,30.20,17,7,17,0.01
2013-1-4,43,32,25,23,16,5,75,54,24,30.46,30.37,23,8,23,0.00
2013-1-5,53,37,25,27,15,-3,66,46,16,30.45,30.33,19,4,20,0.01
2013-1-6,43,36,34,36,30,25,93,80,62,30.34,30.22,21,6,23,0.05
2013-1-7,66,41,27,32,22,5,85,56,13,30.43,30.31,15,5,19,0.00
2013-1-8,64,47,36,46,35,23,89,64,46,30.47,30.38,23,6,23,0.00
2013-1-9,59,54,49,55,51,46,94,90,83,30.54,30.43,11,4,11,0.04
2013-1-10,66,59,54,53,50,48,91,74,56,30.54,30.34,23,7,25,0.00
2013-1-11,62,60,55,60,57,52,99,92,82,30.35,30.25,22,7,23,0.19
2013-1-12,62,61,61,61,60,58,98,94,90,30.29,30.26,12,4,15,0.04
2013-3-24,55,46,37,54,42,26,99,87,65,29.77,29.61,37,13,43,0.91
2013-3-25,33,28,26,22,19,15,81,68,58,29.94,29.78,35,22,41,0.08
2013-3-27,37,36,35,17,16,16,48,45,43,30.36,30.35,8,4,11,0.00
2013-3-28,54,42,32,22,13,-6,55,35,14,30.40,30.33,27,10,28,0.00
2013-3-29,56,44,35,35,25,13,70,50,26,30.42,30.30,11,4,15,0.00
2013-3-30,67,54,42,50,37,22,99,61,24,30.29,30.14,34,6,34,0.26
2013-3-31,61,54,51,54,52,48,99,93,68,30.09,30.01,23,10,28,0.43
2013-4-1,61,53,45,51,40,31,99,67,39,30.17,30.01,26,10,32,0.02
2013-4-2,54,44,35,32,14,-3,68,37,13,30.28,30.16,23,10,23,0.00
2013-4-3,65,49,38,27,18,6,48,33,13,30.30,30.21,12,5,17,0.00
2013-4-4,48,39,36,41,36,22,99,90,38,30.25,30.04,20,7,27,0.94
2013-4-5,60,49,38,50,36,26,99,67,30,30.21,30.04,21,9,23,0.01
2013-4-6,74,58,42,38,24,2,67,35,10,30.31,30.20,15,5,21,0.00
2013-4-7,75,62,50,41,36,30,55,42,26,30.32,30.22,17,6,23,0.00
2013-4-8,74,66,57,50,46,42,72,51,35,30.29,30.21,25,7,25,0.00
2013-4-9,84,70,60,54,49,42,71,50,28,30.35,30.24,20,7,26,0.00
2013-4-10,89,74,63,54,50,40,69,48,22,30.30,30.11,17,6,17,0.00
2013-4-11,81,68,58,61,54,49,99,64,40,30.12,29.87,19,7,25,0.20
2013-4-12,62,54,49,59,45,32,99,76,35,30.09,29.83,25,13,26,0.59
2013-4-13,70,56,45,38,28,2,72,41,12,30.20,30.09,24,10,24,0.00
2013-4-14,70,57,50,49,37,24,90,52,22,30.19,30.07,21,7,30,0.05
2013-4-15,77,62,52,54,52,49,93,72,43,30.31,30.07,14,5,15,0.00
2013-4-16,85,70,57,58,56,52,92,65,38,30.40,30.30,15,6,19,0.00
2013-4-17,86,70,59,60,58,53,99,69,40,30.39,30.24,15,5,18,0.24
2013-4-18,81,69,60,60,55,50,92,66,39,30.26,30.07,19,8,21,0.01
2013-4-19,67,54,40,61,48,31,99,82,65,30.17,29.94,27,15,31,0.37
2013-4-20,58,47,34,30,21,14,79,42,22,30.37,30.18,24,11,24,0.00
2013-4-21,75,57,42,34,21,2,59,34,10,30.45,30.35,14,5,19,0.00
2013-4-22,78,59,44,38,29,4,73,42,10,30.44,30.27,17,6,18,0.00
2013-4-23,80,62,45,44,32,26,59,37,19,30.35,30.20,17,6,17,0.00
2013-4-24,70,59,44,58,50,43,99,76,52,30.29,30.20,31,11,31,0.08
2013-4-25,64,51,37,41,26,-3,99,54,10,30.45,30.28,26,10,27,0.00
2013-4-26,79,60,40,42,23,1,61,34,10,30.49,30.39,17,5,18,0.00
2013-4-27,54,51,48,53,48,44,99,89,75,30.47,30.27,15,6,18,0.46
2013-4-28,53,52,50,53,51,49,99,98,93,30.29,30.09,27,6,27,0.01
2013-4-29,72,61,50,56,49,44,99,69,41,30.17,30.09,15,6,17,0.01
2013-4-30,83,67,51,54,49,43,87,58,29,30.27,30.12,15,5,18,0.00
2013-5-1,78,66,55,54,50,44,88,62,33,30.35,30.26,16,5,17,0.00
2013-5-2,78,64,56,55,52,48,85,67,40,30.35,30.28,22,8,23,0.00
2013-5-3,69,59,54,52,50,46,87,74,48,30.25,30.13,24,10,35,0.00
2013-5-4,56,51,49,50,47,39,99,86,62,30.09,29.99,36,12,46,0.02
2013-5-5,62,52,45,56,50,44,99,91,68,29.98,29.89,22,6,31,0.14
2013-5-6,55,48,42,47,44,41,99,86,63,30.04,29.91,15,4,19,0.24
2013-5-7,67,56,45,50,45,40,97,69,41,30.12,30.00,27,8,28,0.01
2013-5-8,70,60,52,55,52,49,92,75,53,30.23,30.09,21,7,21,0.00
2013-5-9,79,67,54,58,51,44,94,61,35,30.29,30.19,18,6,21,0.00
2013-5-10,74,66,60,58,53,49,78,65,52,30.25,30.15,17,8,18,0.00
2013-5-11,73,61,54,62,57,53,99,88,58,30.14,30.06,25,6,27,0.52
2013-5-12,60,53,48,49,34,16,96,56,21,30.25,30.11,25,12,28,0.00
2013-5-13,63,53,42,34,24,11,61,38,21,30.33,30.23,26,10,29,0.00
2013-5-14,78,63,44,50,40,28,62,46,33,30.37,30.26,23,7,23,0.00
2013-5-15,83,72,60,54,48,39,73,48,26,30.34,30.20,23,9,24,0.00
2013-5-16,82,71,61,57,53,49,70,56,36,30.27,30.17,15,4,18,0.00
2013-5-17,87,73,63,58,54,48,76,55,33,30.29,30.21,11,4,14,0.00
2013-5-18,72,65,60,64,61,59,99,87,70,30.26,30.21,10,4,10,0.30
2013-5-19,72,64,60,70,62,60,99,95,79,30.29,30.16,17,4,18,0.61
2013-5-20,86,72,58,66,61,57,98,73,46,30.30,30.20,11,4,16,0.01
2013-5-21,88,75,66,69,63,58,93,70,39,30.25,30.12,18,5,26,0.24
2013-5-22,84,73,63,66,60,52,88,66,40,30.17,30.05,25,7,26,0.00
2013-5-23,77,67,60,63,57,50,98,72,43,30.17,30.09,30,10,41,0.11
2013-5-24,67,60,55,52,42,29,89,56,31,30.39,30.17,23,14,28,0.00
2013-5-25,74,62,44,44,32,8,78,41,12,30.46,30.35,23,6,28,0.00
2013-5-26,78,65,52,49,40,33,68,43,24,30.44,30.34,13,5,15,0.00
2013-5-27,86,72,57,55,50,42,70,50,27,30.40,30.30,15,5,17,0.00
2013-5-28,88,75,66,58,54,44,72,52,28,30.39,30.30,19,6,20,0.00
2013-5-29,90,75,61,60,57,48,85,58,28,30.40,30.31,13,5,19,0.00
2013-5-30,86,74,64,62,58,54,83,61,38,30.43,30.32,17,5,20,0.00
2013-5-31,86,75,65,62,59,56,83,62,42,30.39,30.28,12,5,15,0.00
2013-6-1,86,74,66,65,62,58,93,68,43,30.30,30.19,11,5,16,0.04
2013-6-2,77,69,64,70,66,62,99,92,73,30.19,30.09,21,5,22,1.58
2013-6-3,79,70,64,66,61,56,99,76,48,30.18,30.09,19,6,21,0.01
2013-6-4,86,73,58,63,58,53,95,64,38,30.23,30.15,10,4,11,0.00
2013-6-5,87,72,62,67,63,61,98,77,45,30.24,30.14,23,5,26,0.01
2013-6-6,83,70,61,69,64,60,99,83,59,30.11,29.97,12,4,13,0.01
2013-6-7,79,68,62,68,63,60,99,86,53,30.06,29.90,21,7,23,0.07
2013-6-8,83,69,60,67,61,58,99,77,46,30.28,30.05,9,4,11,0.01
2013-6-9,86,73,66,69,64,60,94,78,46,30.30,30.19,16,5,18,0.14
2013-6-10,79,70,62,66,62,55,99,79,48,30.20,30.13,23,8,23,0.01
2013-6-11,82,74,66,69,66,62,99,79,54,30.24,30.17,20,8,23,0.43
2013-6-12,87,78,68,71,68,63,92,72,50,30.28,30.20,17,6,17,0.00
2013-6-13,83,74,67,70,67,64,98,81,58,30.19,29.97,36,11,43,0.27
2013-6-14,88,73,60,60,53,47,86,54,29,30.23,30.07,11,4,14,0.01
2013-6-15,86,74,61,60,55,50,75,55,37,30.33,30.23,11,4,12,0.00
2013-6-16,86,75,63,66,59,56,91,61,42,30.35,30.22,13,5,14,0.01
2013-6-17,90,72,67,72,66,64,96,84,48,30.26,30.16,12,3,17,0.31
2013-6-18,75,68,65,70,66,64,99,93,80,30.13,30.06,22,7,25,0.21
2013-6-19,82,72,62,64,61,57,91,71,49,30.30,30.12,12,4,13,0.00
2013-6-20,88,72,63,67,62,59,96,75,42,30.40,30.29,14,4,14,0.06
2013-6-21,85,70,64,65,62,59,93,79,44,30.44,30.36,13,4,14,0.04
2013-6-22,87,73,59,68,60,57,99,69,40,30.43,30.30,9,4,11,0.01
2013-6-23,88,72,63,68,63,58,90,75,45,30.40,30.31,12,4,15,0.01
2013-6-24,89,76,66,69,64,55,95,70,42,30.43,30.31,15,4,19,0.07
2013-6-25,85,74,65,70,66,63,97,78,56,30.37,30.25,13,4,17,0.00
2013-6-26,86,75,68,71,68,66,96,79,55,30.29,30.16,13,5,16,0.01
2013-6-27,82,74,66,71,69,62,97,85,67,30.16,30.03,29,8,46,0.25
2013-6-28,86,74,66,76,68,60,99,83,46,30.06,29.91,48,6,48,0.27
2013-6-29,83,73,64,69,59,51,99,67,40,29.96,29.90,17,4,17,0.01
2013-6-30,88,75,63,63,56,45,81,57,29,30.02,29.92,17,6,18,0.00
2013-7-1,86,71,64,70,63,58,96,78,43,30.13,30.00,17,4,23,0.04
2013-7-2,86,72,64,70,64,61,97,78,52,30.27,30.13,17,5,25,0.17
2013-7-3,65,63,62,64,62,62,99,97,97,30.36,30.31,11,4,21,0.07
2013-7-4,77,68,64,69,66,63,99,92,71,30.35,30.30,12,5,17,0.01
2013-7-5,87,72,66,69,65,63,96,81,47,30.40,30.32,12,4,13,0.01
2013-7-6,83,71,66,69,66,64,99,87,56,30.36,30.30,15,5,17,0.18
2013-7-7,82,73,68,69,67,64,95,83,59,30.37,30.30,15,4,15,0.24
2013-7-8,85,75,67,72,68,64,99,80,54,30.40,30.31,15,4,17,0.02
2013-7-9,86,75,68,73,69,66,99,83,52,30.38,30.28,19,4,21,0.01
2013-7-10,88,73,67,73,68,62,99,87,50,30.31,30.18,23,3,23,0.12
2013-7-11,85,74,68,72,68,65,99,85,57,30.19,30.10,16,5,16,0.01
2013-7-12,81,74,67,71,66,60,99,78,50,30.18,30.11,16,6,21,0.00
2013-7-13,83,74,65,64,63,61,92,71,52,30.28,30.16,21,5,21,0.00
2013-7-14,84,72,66,71,67,63,98,84,57,30.43,30.27,21,5,21,0.02
2013-7-15,94,78,66,67,65,61,97,68,41,30.50,30.42,14,4,21,0.05
2013-7-16,92,79,68,70,66,62,91,68,42,30.53,30.44,10,3,11,0.01
2013-7-17,89,77,68,72,68,64,96,77,47,30.51,30.36,12,4,15,0.01
2013-7-18,93,76,65,73,66,63,99,76,43,30.40,30.28,16,3,16,0.09
2013-7-19,93,77,68,71,67,62,94,73,41,30.34,30.22,13,5,16,0.00
2013-7-20,93,76,69,71,67,63,94,75,43,30.26,30.15,17,4,20,0.02
2013-7-21,86,74,68,71,68,64,98,84,52,30.25,30.15,17,4,18,0.05
2013-7-22,81,72,67,71,67,64,99,86,60,30.21,30.10,20,7,20,0.02
2013-7-23,82,72,66,72,67,65,98,86,63,30.17,30.06,31,6,31,0.20
2013-7-24,86,75,68,73,66,58,99,78,43,30.10,30.04,15,7,18,0.00
2013-7-25,84,72,62,69,62,49,99,74,35,30.23,30.09,17,6,21,0.00
2013-7-26,90,74,63,66,63,60,95,72,43,30.28,30.19,18,4,19,0.12
2013-7-27,83,72,65,69,65,54,99,80,44,30.19,30.11,14,5,15,0.12
2013-7-28,79,72,64,67,62,58,96,75,51,30.26,30.13,16,6,17,0.00
2013-7-29,78,68,61,64,56,48,89,69,41,30.38,30.25,15,6,17,0.00
2013-7-30,85,74,60,63,56,50,87,59,33,30.41,30.32,8,3,9,0.00
2013-7-31,78,71,64,70,66,63,99,86,71,30.35,30.19,15,4,15,0.01
2013-8-1,82,73,67,70,66,61,99,80,53,30.19,30.14,18,7,21,0.21
2013-8-2,86,74,62,69,62,56,97,72,43,30.26,30.17,11,4,14,0.00
2013-8-3,80,73,66,70,65,60,94,77,55,30.27,30.21,16,4,16,0.00
2013-8-4,83,74,67,72,63,52,99,73,49,30.26,30.21,22,8,22,0.00
2013-8-5,86,74,62,64,58,53,90,62,41,30.28,30.20,12,4,14,0.00
2013-8-6,87,75,68,70,64,59,88,72,51,30.24,30.17,7,2,8,0.00
2013-8-7,83,74,69,73,68,66,92,85,63,30.27,30.20,8,3,14,0.05
2013-8-8,90,74,66,73,68,65,99,83,51,30.28,30.21,11,4,17,0.84
2013-8-9,92,77,68,75,70,66,99,80,49,30.32,30.24,14,4,21,0.98
2013-8-10,85,75,70,75,70,67,95,85,63,30.35,30.29,14,3,16,0.40
2013-8-11,85,75,67,73,69,64,99,83,61,30.37,30.30,15,3,17,0.59
2013-8-12,82,74,68,74,69,66,99,88,62,30.32,30.21,23,4,28,0.31
2013-8-13,80,72,68,73,68,65,99,87,65,30.19,30.10,29,7,29,1.07
2013-8-14,79,70,65,69,63,60,99,81,59,30.23,30.12,12,5,15,0.00
2013-8-15,82,69,61,61,57,53,84,66,46,30.28,30.21,17,5,17,0.00
2013-8-16,79,67,59,61,57,53,82,71,51,30.30,30.22,10,3,16,0.00
2013-8-17,74,65,61,62,59,56,98,83,62,30.32,30.26,9,2,11,0.19
2013-8-18,81,67,61,70,64,60,99,91,60,30.38,30.29,7,3,11,0.56
2013-8-19,81,69,63,73,66,62,99,91,70,30.35,30.27,9,3,12,1.26
2013-8-20,88,74,64,70,66,63,99,77,49,30.38,30.30,8,3,11,0.00
2013-8-21,75,69,66,71,67,65,98,92,80,30.44,30.33,8,3,12,0.43
2013-8-22,86,74,66,73,66,62,99,80,54,30.38,30.27,11,5,16,0.06
2013-8-23,85,74,63,71,65,61,99,78,49,30.31,30.21,12,4,15,0.00
2013-8-24,88,74,64,67,63,57,93,71,43,30.45,30.27,13,4,14,0.00
2013-8-25,87,72,61,62,57,52,78,61,38,30.54,30.44,9,3,17,0.00
2013-8-26,82,70,60,63,60,56,92,72,47,30.50,30.34,12,4,15,0.00
2013-8-27,82,71,60,67,64,60,99,80,53,30.35,30.25,14,5,15,0.00
2013-8-28,84,75,65,69,67,65,99,77,56,30.27,30.21,16,6,16,0.00
2013-8-29,84,75,69,72,69,66,94,81,62,30.25,30.17,15,8,15,0.00
2013-8-30,76,72,71,71,71,69,92,90,78,30.25,30.16,11,7,11,0.00
2013-8-31,75,75,75,70,70,70,85,85,85,30.21,30.10,5,5,5,0.00
2013-9-1,75,75,75,70,70,70,85,85,85,30.17,30.07,5,5,5,0.00
2013-9-2,75,75,75,70,70,70,85,85,85,30.19,30.08,5,5,5,0.00
2013-9-3,75,75,75,70,70,70,85,85,85,30.21,30.08,5,5,5,0.00
2013-9-4,75,75,75,70,70,70,85,85,85,30.32,30.20,5,5,5,0.00
2013-9-5,75,75,75,70,70,70,85,85,85,30.35,30.29,5,5,5,0.00
2013-9-6,75,75,75,70,70,70,85,85,85,30.37,30.27,5,5,5,0.00
2013-9-7,75,75,75,70,70,70,85,85,85,30.34,30.22,5,5,5,0.00
2013-9-8,75,75,75,70,70,70,85,85,85,30.23,30.17,5,5,5,0.00
2013-9-9,75,75,75,70,70,70,85,85,85,30.34,30.23,5,5,5,0.00
2013-9-10,75,75,75,70,70,70,85,85,85,30.43,30.35,5,5,5,0.00
2013-9-11,75,75,75,70,70,70,85,85,85,30.44,30.32,5,5,5,0.00
2013-9-12,75,75,75,70,70,70,85,85,85,30.30,30.14,5,5,5,0.00
2013-9-13,75,75,75,70,70,70,85,85,85,30.12,30.06,5,5,5,0.00
2013-9-14,75,75,75,70,70,70,85,85,85,30.27,30.11,5,5,5,0.00
2013-9-15,75,75,75,70,70,70,85,85,85,30.36,30.27,5,5,5,0.00
2013-9-16,75,75,75,70,70,70,85,85,85,30.35,30.28,5,5,5,0.00
2013-9-17,75,75,75,70,70,70,85,85,85,30.41,30.32,5,5,5,0.00
2013-9-18,75,75,75,70,70,70,85,85,85,30.42,30.33,5,5,5,0.00
2013-9-19,75,75,75,70,70,70,85,85,85,30.38,30.27,5,5,5,0.00
2013-9-20,75,75,75,70,70,70,85,85,85,30.28,30.14,5,5,5,0.00
2013-9-21,75,40,0,70,37,0,85,45,85,30.11,29.93,5,3,5,0.00
2013-9-22,0,0,0,0,0,0,0,0,100,30.09,29.99,0,0,0,0.00
2013-9-23,0,0,0,0,0,0,0,0,100,30.19,30.10,0,0,0,0.00
2013-9-24,71,65,62,62,60,59,89,85,71,29.92,29.92,10,3,11,0.00
2013-9-25,68,62,60,63,60,59,99,96,83,29.92,29.92,11,3,11,0.01
2013-9-26,76,66,58,65,59,56,99,83,56,29.92,29.92,15,4,16,0.04
2013-9-27,78,66,55,59,56,52,94,73,47,29.92,29.92,11,4,14,0.00
2013-9-28,78,66,55,56,54,51,88,68,43,29.92,29.92,9,4,11,0.00
2013-9-29,73,61,53,55,52,49,88,73,48,29.92,29.92,8,3,9,0.00
2013-9-30,78,64,53,60,54,50,98,73,41,29.92,29.92,13,4,15,0.00
2013-10-1,80,66,55,60,56,53,95,74,44,29.92,29.92,9,3,11,0.00
2013-10-2,84,69,57,63,59,56,97,74,43,29.92,29.92,10,4,11,0.00
2013-10-3,83,72,62,62,58,54,84,65,41,29.92,29.92,11,4,12,0.00
2013-10-4,88,72,60,62,58,56,92,67,39,29.92,29.92,10,5,12,0.00
2013-10-5,91,74,62,64,60,55,92,66,34,29.92,29.92,11,4,12,0.00
2013-10-6,83,70,63,63,60,58,97,72,46,29.92,29.92,15,5,15,0.22
2013-10-7,67,57,51,62,51,47,99,82,57,29.92,29.92,30,8,30,0.45
2013-10-8,81,62,46,56,51,46,99,71,39,29.92,29.92,15,4,16,0.00
2013-10-9,76,63,52,57,53,48,90,73,51,29.92,29.92,15,5,18,0.00
2013-10-10,70,61,51,56,51,48,99,74,48,29.92,29.92,19,6,21,0.01
2013-10-11,74,63,51,57,53,49,97,73,49,29.92,29.92,15,6,17,0.00
2013-10-12,76,63,52,58,53,50,98,73,46,29.92,29.92,17,5,18,0.00
2013-10-13,76,64,54,60,57,53,98,80,54,29.92,29.92,11,3,12,0.00
2013-10-14,82,67,58,62,58,54,99,75,43,29.92,29.92,8,3,11,0.00
2013-10-15,73,63,56,59,56,54,93,78,57,29.92,29.92,11,3,11,0.00
2013-10-16,70,62,56,58,56,54,93,82,64,29.92,29.92,8,2,8,0.00
2013-10-17,65,60,53,64,59,52,99,98,94,29.92,29.92,16,7,22,0.15
2013-10-18,70,56,48,59,49,46,99,82,49,29.92,29.92,11,4,12,0.00
2013-10-19,65,54,48,55,50,46,99,85,55,29.92,29.92,15,5,17,0.00
2013-10-20,67,51,40,45,39,21,99,70,23,29.92,29.92,10,4,11,0.00
2013-10-21,72,58,46,50,45,39,89,66,34,29.92,29.92,12,5,17,0.00
2013-10-22,68,58,52,54,48,43,91,72,44,29.92,29.92,12,6,17,0.00
2013-10-23,49,44,37,46,35,28,92,71,52,29.92,29.92,38,14,38,0.00
2013-10-24,56,44,34,39,34,28,87,69,44,29.92,29.92,21,6,21,0.00
2013-10-25,52,39,28,26,21,9,81,54,21,29.92,29.92,17,7,19,0.00
2013-10-26,59,45,31,32,26,11,81,52,20,29.92,29.92,21,6,21,0.00
2013-10-27,63,54,47,51,42,32,90,66,49,29.92,29.92,11,3,11,0.00
2013-10-28,61,55,51,56,51,48,99,87,74,29.92,29.92,15,4,15,0.07
2013-10-29,73,57,46,58,51,45,99,82,46,29.92,29.92,11,3,11,0.00
2013-10-30,77,65,57,55,53,51,85,67,44,29.92,29.92,13,5,15,0.00
2013-10-31,67,63,60,59,54,49,90,74,61,29.92,29.92,26,9,30,0.02
2013-11-1,72,63,54,61,48,30,99,65,26,29.92,29.92,26,11,27,0.18
2013-11-2,60,51,44,44,38,29,81,63,36,29.92,29.92,27,10,28,0.00
2013-11-3,62,48,38,41,36,29,99,68,32,29.92,29.92,15,6,16,0.00
2013-11-4,70,52,42,35,31,25,65,48,22,29.92,29.92,21,6,21,0.00
2013-11-5,74,55,42,40,32,22,65,45,27,29.92,29.92,15,5,17,0.00
2013-11-6,73,61,53,53,51,47,91,72,45,29.92,29.92,20,5,20,0.00
2013-11-7,59,56,55,55,54,52,99,94,81,29.92,29.92,9,4,11,0.18
2013-11-8,58,48,40,26,15,2,51,32,14,29.92,29.92,15,6,15,0.00
2013-11-9,62,48,38,31,25,17,57,42,21,29.92,29.92,11,4,12,0.00
2013-11-10,66,53,41,36,27,6,77,42,13,29.92,29.92,19,7,23,0.00
2013-11-11,69,54,38,31,20,-2,64,35,10,29.92,29.92,11,4,11,0.00
2013-11-12,50,38,23,39,23,8,82,57,43,29.92,29.92,26,10,28,0.00
2013-11-13,46,32,19,15,9,-1,81,45,17,29.92,29.92,15,6,15,0.00
2013-11-14,68,46,29,22,5,-6,47,25,10,29.92,29.92,11,4,11,0.00
2013-11-15,51,47,40,51,40,3,99,81,23,29.92,29.92,11,5,13,0.19
2013-11-16,64,57,51,55,52,51,99,87,69,29.92,29.92,14,5,15,0.01
2013-11-17,63,60,57,62,57,53,99,90,79,29.92,29.92,16,5,20,0.04
2013-11-18,63,55,44,62,36,20,99,57,23,29.92,29.92,26,11,29,0.32
2013-11-19,60,44,36,26,22,11,62,45,19,29.92,29.92,15,5,15,0.00
2013-11-20,64,48,37,28,23,11,60,42,16,29.92,29.92,21,7,25,0.00
2013-11-21,64,54,44,52,48,35,91,80,66,29.92,29.92,11,5,15,0.01
2013-11-22,62,57,54,58,55,53,99,94,84,29.92,29.92,16,5,19,0.07
2013-11-23,46,40,32,45,34,16,99,78,53,29.92,29.92,22,12,24,0.01
2013-11-24,41,29,20,12,4,-6,67,40,18,29.92,29.92,17,8,21,0.00
2013-11-25,46,37,26,33,6,-10,92,35,13,29.92,29.92,10,4,15,0.12
2013-11-26,47,43,36,47,42,35,99,98,97,29.92,29.92,22,7,22,0.09
2013-11-27,32,26,21,32,21,12,99,83,68,29.92,29.92,28,15,29,0.12
2013-11-28,49,33,17,24,16,7,87,55,22,29.92,29.92,8,3,11,0.00
2013-11-29,57,41,28,28,23,16,66,51,29,29.92,29.92,12,4,13,0.00
2013-11-30,63,45,34,25,18,6,58,39,14,29.92,29.92,14,5,17,0.00
2013-12-1,56,47,41,37,31,24,68,55,41,29.92,29.92,13,5,13,0.00
2013-12-2,47,44,40,45,40,31,98,87,63,29.92,29.92,10,3,11,0.04
2013-12-3,55,52,47,51,49,47,99,91,84,29.92,29.92,10,4,11,0.01
2013-12-4,55,54,53,53,52,50,95,93,90,29.92,29.92,9,6,10,0.01
2013-12-5,69,65,63,64,62,60,97,91,79,29.92,29.92,15,6,20,0.05
2013-12-6,69,62,44,64,58,44,99,88,72,29.92,29.92,31,13,36,0.14
2013-12-7,41,36,33,40,35,33,99,98,97,29.92,29.92,15,6,15,0.15
2013-12-8,51,44,42,51,44,42,99,98,97,29.92,29.92,14,6,26,0.33
2013-12-9,53,49,44,53,48,44,99,99,97,29.92,29.92,13,4,15,0.81
2013-12-10,47,35,27,46,28,15,99,80,51,29.92,29.92,24,11,33,0.43
2013-12-11,53,37,23,29,17,0,79,50,18,29.92,29.92,11,5,13,0.00
2013-12-12,39,30,23,20,10,-9,84,49,16,29.92,29.92,20,10,20,0.00
2013-12-13,50,39,24,22,12,2,59,36,20,29.92,29.92,11,4,12,0.00
2013-12-14,50,46,42,49,42,20,99,89,43,29.92,29.92,21,8,25,0.46
2013-12-15,37,30,26,36,27,22,99,88,78,29.92,29.92,34,13,34,0.01
2013-12-16,57,39,24,37,26,21,97,67,29,29.92,29.92,12,3,12,0.00
2013-12-17,58,46,36,33,27,17,63,50,29,29.92,29.92,40,11,40,0.00
2013-12-18,48,38,26,18,4,-7,61,31,14,29.92,29.92,17,8,21,0.00
2013-12-19,67,52,40,24,9,-3,38,22,10,29.92,29.92,14,6,15,0.00
2013-12-20,68,55,46,51,36,20,82,54,23,29.92,29.92,14,5,15,0.00
2013-12-21,66,62,57,62,58,53,94,87,82,29.92,29.92,27,10,38,0.01
2013-12-22,66,55,50,61,54,49,99,96,82,29.92,29.92,31,7,46,0.27
2013-12-23,50,39,29,49,39,28,99,99,97,29.92,29.92,23,12,23,0.41
2013-12-24,32,26,21,26,17,11,94,68,46,29.92,29.92,30,10,30,0.01
2013-12-25,53,35,21,21,14,2,71,48,18,29.92,29.92,14,4,14,0.00
2013-12-26,49,37,28,28,21,18,69,54,33,29.92,29.92,14,6,16,0.00
2013-12-27,56,42,29,28,22,12,72,50,22,29.92,29.92,10,4,11,0.00
2013-12-28,45,40,35,42,30,19,99,69,39,29.92,29.92,27,7,27,0.61
2013-12-29,47,41,38,46,40,38,99,99,97,29.92,29.92,20,10,21,0.83
2013-12-30,39,35,31,39,34,30,99,96,87,29.92,29.92,16,8,17,0.00
2013-12-31,43,33,28,31,22,14,99,68,39,29.92,29.92,17,7,21,0.00
2014-1-1,55,42,33,28,20,12,62,45,24,29.92,29.92,11,5,14,0.00
2014-1-2,43,36,15,43,33,6,99,89,61,29.92,29.92,38,13,38,0.24